Content
SEND FEEDBACK

Daily
Averages
Monthly
Summary
United States of America

SPRING GROVE, MINNESOTA


Home > North America > United States > Minnesota
Elevation: 1320 feet     Latitude: 43 34N     Longitude: 091 40W

WEATHER
 
SELECT A DAY
Number of Records: 400,928;   Date Range: 4/29/95 - 9/29/14
 
SHARE

PRINT THIS DATA

[ ← Previous Day ]
WEATHER ALMANAC - FEBRUARY 13, 2013
[ Next Day → ]
[ °C ]   °F
Weather ElementAverageHighLow
Temperature31 °F37.4 °F (8:35 pm)21.2 °F (7:35 am)
Dewpoint26.9 °F32 °F (7:15 pm)21.2 °F (6:35 am)
Humidity85.5 %100 % (3:35 am)70 % (11:55 am)
Barometer29.70 in29.81 in (12:35 am)29.56 in (11:15 pm)
Wind Speed5.3 mph9.2 mph (12:55 pm)
Wind Gust15 mph (10:15 pm)
Weather ElementAverage
Visibility8.7 mi
Wind DirectionS (179.6 °)

Weather ElementTotal
Precipitation---
Heating Degree Days35.7 (Base 65)
Averaged from 70 records on February 13, 2013
WEATHER CONDITIONS BREAKOUT
WIND DIRECTION BREAKOUT
WEATHER BY HOUR - FEBRUARY 13, 2013
[ °C ]   °F
Local TimeTemperatureDewpointHumidityBarometerVisibilityWind DirectionWind SpeedGust SpeedPrecipitationEventsConditions
12:35 AM28.4 °F24.8 °F86 %29.81 in9.0 miCalmClear
12:55 AM26.6 °F24.8 °F93 %29.80 in8.0 miCalmClear
1:15 AM26.6 °F24.8 °F93 %29.80 in7.0 miCalmClear
1:35 AM26.6 °F24.8 °F93 %29.80 in7.0 miCalmClear
1:55 AM26.6 °F24.8 °F93 %29.79 in7.0 miCalmClear
2:15 AM26.6 °F24.8 °F93 %29.79 in6.0 miCalmClear
2:35 AM26.6 °F24.8 °F93 %29.79 in6.0 miWSW (250°)3.5 mphClear
2:55 AM26.6 °F24.8 °F93 %29.78 in6.0 miWest (260°)4.6 mphClear
3:15 AM26.6 °F24.8 °F93 %29.77 in5.0 miWest (280°)4.6 mphClear
3:35 AM24.8 °F24.8 °F100 %29.77 in4.0 miWest (260°)3.5 mphClear
3:55 AM24.8 °F24.8 °F100 %29.76 in4.0 miWest (280°)4.6 mphClear
4:15 AM24.8 °F23.0 °F93 %29.76 in4.0 miWSW (240°)3.5 mphClear
4:35 AM24.8 °F23.0 °F93 %29.76 in4.0 miWest (260°)5.8 mphClear
4:55 AM24.8 °F23.0 °F93 %29.76 in7.0 miWest (280°)4.6 mphClear
5:15 AM24.8 °F23.0 °F93 %29.77 in5.0 miWest (270°)4.6 mphClear
5:35 AM23.0 °F23.0 °F100 %29.76 in4.0 miWest (270°)4.6 mphClear
6:15 AM23.0 °F23.0 °F100 %29.75 in5.0 miWest (280°)4.6 mphOvercast
6:35 AM23.0 °F21.2 °F93 %29.74 in8.0 miWest (270°)4.6 mphScattered Clouds
6:55 AM23.0 °F21.2 °F93 %29.74 in8.0 miWNW (290°)4.6 mphClear
7:15 AM23.0 °F21.2 °F93 %29.74 in7.0 miWest (280°)4.6 mphClear
7:35 AM21.2 °F21.2 °F100 %29.75 in6.0 miWNW (290°)3.5 mphClear
7:55 AM23.0 °F21.2 °F93 %29.75 in8.0 miWNW (290°)5.8 mphClear
8:15 AM23.0 °F21.2 °F93 %29.74 in9.0 miVariable4.6 mphClear
8:35 AM23.0 °F21.2 °F93 %29.74 in9.0 miWNW (290°)4.6 mphClear
8:55 AM24.8 °F21.2 °F86 %29.74 in10.0 miWNW (290°)4.6 mphClear
9:15 AM24.8 °F23.0 °F93 %29.73 in10.0 miWest (280°)4.6 mphClear
9:35 AM26.6 °F23.0 °F86 %29.73 in10.0 miWNW (290°)5.8 mphClear
9:55 AM28.4 °F23.0 °F80 %29.73 in10.0 miWSW (250°)8.1 mphClear
10:15 AM28.4 °F24.8 °F86 %29.73 in10.0 miWest (260°)5.8 mphClear
10:35 AM30.2 °F24.8 °F80 %29.73 in10.0 miWSW (250°)6.9 mphClear
10:55 AM32.0 °F24.8 °F75 %29.74 in10.0 miVariable4.6 mph11.5 mphClear
11:15 AM32.0 °F24.8 °F75 %29.74 in10.0 miVariable4.6 mphPartly Cloudy
11:35 AM32.0 °F24.8 °F75 %29.73 in10.0 miWNW (290°)5.8 mphMostly Cloudy
11:55 AM33.8 °F24.8 °F70 %29.72 in10.0 miVariable6.9 mphOvercast
12:15 PM33.8 °F26.6 °F75 %29.71 in10.0 miVariable4.6 mphOvercast
12:35 PM33.8 °F26.6 °F75 %29.71 in10.0 miVariable6.9 mphOvercast
12:55 PM33.8 °F26.6 °F75 %29.70 in10.0 miWest (270°)9.2 mphOvercast
1:15 PM33.8 °F26.6 °F75 %29.70 in10.0 miWest (280°)6.9 mphOvercast
1:35 PM35.6 °F26.6 °F70 %29.71 in10.0 miVariable5.8 mphOvercast
1:55 PM33.8 °F28.4 °F81 %29.70 in10.0 miWest (260°)8.1 mphOvercast
2:15 PM35.6 °F28.4 °F75 %29.70 in10.0 miVariable5.8 mph12.7 mphOvercast
2:35 PM35.6 °F28.4 °F75 %29.70 in10.0 miWSW (250°)6.9 mphOvercast
2:55 PM35.6 °F28.4 °F75 %29.70 in10.0 miWest (260°)6.9 mphOvercast
3:15 PM35.6 °F28.4 °F75 %29.70 in10.0 miWSW (250°)5.8 mphOvercast
3:35 PM35.6 °F30.2 °F81 %29.69 in10.0 miCalmOvercast
3:55 PM35.6 °F30.2 °F81 %29.69 in10.0 miSW (220°)5.8 mphOvercast
4:15 PM35.6 °F30.2 °F81 %29.68 in10.0 miSouth (180°)5.8 mphOvercast
4:35 PM35.6 °F30.2 °F81 %29.68 in10.0 miSouth (170°)6.9 mphOvercast
4:55 PM35.6 °F30.2 °F81 %29.68 in10.0 miSouth (190°)3.5 mphMostly Cloudy
5:15 PM35.6 °F30.2 °F81 %29.67 in10.0 miSSW (200°)4.6 mphMostly Cloudy
5:35 PM33.8 °F30.2 °F87 %29.67 in10.0 miSouth (190°)5.8 mphOvercast
5:55 PM33.8 °F30.2 °F87 %29.67 in10.0 miSSW (210°)4.6 mphOvercast
6:15 PM33.8 °F30.2 °F87 %29.67 in10.0 miSouth (190°)6.9 mphOvercast
6:35 PM33.8 °F30.2 °F87 %29.67 in10.0 miVariable5.8 mphOvercast
6:55 PM33.8 °F30.2 °F87 %29.67 in10.0 miVariable5.8 mphOvercast
7:15 PM35.6 °F32.0 °F87 %29.66 in10.0 miSouth (180°)6.9 mphOvercast
7:35 PM33.8 °F32.0 °F93 %29.65 in10.0 miSSE (160°)5.8 mphOvercast
7:55 PM35.6 °F32.0 °F87 %29.64 in10.0 miSouth (170°)5.8 mphOvercast
8:15 PM35.6 °F32.0 °F87 %29.63 in10.0 miSouth (180°)8.1 mphOvercast
8:35 PM37.4 °F32.0 °F81 %29.62 in10.0 miSouth (180°)9.2 mphOvercast
8:55 PM37.4 °F32.0 °F81 %29.61 in10.0 miSouth (180°)8.1 mphOvercast
9:15 PM37.4 °F32.0 °F81 %29.61 in10.0 miSouth (190°)8.1 mphOvercast
9:35 PM37.4 °F32.0 °F81 %29.60 in9.0 miSouth (190°)6.9 mph13.8 mphMostly Cloudy
9:55 PM37.4 °F32.0 °F81 %29.59 in10.0 miSSW (200°)8.1 mphOvercast
10:15 PM37.4 °F32.0 °F81 %29.59 in10.0 miSSW (210°)6.9 mph15.0 mphRainLight Rain
10:35 PM37.4 °F32.0 °F81 %29.58 in10.0 miSSW (200°)6.9 mphRainLight Rain
10:55 PM37.4 °F32.0 °F81 %29.57 in10.0 miSSW (200°)9.2 mphOvercast
11:15 PM37.4 °F32.0 °F81 %29.56 in10.0 miSSW (210°)8.1 mphOvercast
11:35 PM37.4 °F32.0 °F81 %29.56 in10.0 miSW (230°)6.9 mph12.7 mphOvercast
11:55 PM37.4 °F32.0 °F81 %29.56 in10.0 miSW (220°)8.1 mphOvercast
Hourly data recorded from KDEH, located miles away from Spring Grove, Minnesota







STORIES FROM OUR PARTNERS